カタログに戻る

ATLAS 5 CENTAUR DEB

運用中HEO
NORAD 45471·DEBRIS·🇺🇸 United States

打ち上げ Oct 17, 2018 から Cape Canaveral Space Force Station

Loading…

次のパス (今後24時間)

TLE

経年Source: Space-Track

元期: Aug 24, 2026, 04:55 UTC

1 45471U 18079BT  26236.20509861 -.00000169  00000-0  00000-0 0  9993
2 45471  13.4555  39.2535 4656645 303.2111  20.3269  1.77786275 43920

AllMySatでATLAS 5 CENTAUR DEBをリアルタイム追跡

Download on the App Store